Year,Month,Day,Hour,Minute,Value (Times are PST for windspeed in km/hr)
2009,09,18,00,00,0.00
2009,09,18,00,01,0.00
2009,09,18,00,02,0.00
2009,09,18,00,03,0.00
2009,09,18,00,04,0.30
2009,09,18,00,05,1.00
2009,09,18,00,06,0.20
2009,09,18,00,07,1.40
2009,09,18,00,08,0.10
2009,09,18,00,09,0.10
2009,09,18,00,10,0.10
2009,09,18,00,11,0.00
2009,09,18,00,12,0.00
2009,09,18,00,13,0.00
2009,09,18,00,14,0.10
2009,09,18,00,15,1.80
2009,09,18,00,16,1.70
2009,09,18,00,17,3.10
2009,09,18,00,18,2.60
2009,09,18,00,19,1.90
2009,09,18,00,20,0.10
2009,09,18,00,21,0.00
2009,09,18,00,22,0.10
2009,09,18,00,23,0.00
2009,09,18,00,24,0.00
2009,09,18,00,25,0.00
2009,09,18,00,26,0.40
2009,09,18,00,27,0.10
2009,09,18,00,28,0.20
2009,09,18,00,29,0.00
2009,09,18,00,30,1.60
2009,09,18,00,31,0.20
2009,09,18,00,32,2.20
2009,09,18,00,33,1.60
2009,09,18,00,34,2.40
2009,09,18,00,35,0.10
2009,09,18,00,36,0.10
2009,09,18,00,37,0.00
2009,09,18,00,38,1.20
2009,09,18,00,39,3.00
2009,09,18,00,40,2.70
2009,09,18,00,41,1.20
2009,09,18,00,42,2.20
2009,09,18,00,43,2.20
2009,09,18,00,44,3.60
2009,09,18,00,45,7.60
2009,09,18,00,46,4.30
2009,09,18,00,47,4.40
2009,09,18,00,48,4.40
2009,09,18,00,49,4.30
2009,09,18,00,50,3.50
2009,09,18,00,51,2.00
2009,09,18,00,52,0.90
2009,09,18,00,53,2.90
2009,09,18,00,54,8.30
2009,09,18,00,55,3.90
2009,09,18,00,56,3.90
2009,09,18,00,57,2.80
2009,09,18,00,58,3.30
2009,09,18,00,59,4.90
2009,09,18,01,00,3.70
2009,09,18,01,01,5.70
2009,09,18,01,02,3.50
2009,09,18,01,03,1.70
2009,09,18,01,04,4.20
2009,09,18,01,05,0.90
2009,09,18,01,06,0.00
2009,09,18,01,07,0.00
2009,09,18,01,08,1.00
2009,09,18,01,09,1.50
2009,09,18,01,10,0.00
2009,09,18,01,11,0.70
2009,09,18,01,12,2.10
2009,09,18,01,13,0.50
2009,09,18,01,14,0.70
2009,09,18,01,15,0.90
2009,09,18,01,16,1.60
2009,09,18,01,17,0.40
2009,09,18,01,18,0.00
2009,09,18,01,19,0.10
2009,09,18,01,20,0.00
2009,09,18,01,21,0.20
2009,09,18,01,22,1.60
2009,09,18,01,23,1.60
2009,09,18,01,24,1.40
2009,09,18,01,25,1.50
2009,09,18,01,26,0.20
2009,09,18,01,27,0.40
2009,09,18,01,28,2.30
2009,09,18,01,29,4.80
2009,09,18,01,30,0.70
2009,09,18,01,31,1.80
2009,09,18,01,32,2.80
2009,09,18,01,33,0.60
2009,09,18,01,34,1.80
2009,09,18,01,35,0.10
2009,09,18,01,36,0.50
2009,09,18,01,37,2.40
2009,09,18,01,38,1.70
2009,09,18,01,39,1.20
2009,09,18,01,40,0.40
2009,09,18,01,41,4.70
2009,09,18,01,42,2.60
2009,09,18,01,43,0.20
2009,09,18,01,44,0.20
2009,09,18,01,45,2.30
2009,09,18,01,46,1.30
2009,09,18,01,47,1.40
2009,09,18,01,48,5.50
2009,09,18,01,49,2.10
2009,09,18,01,50,2.00
2009,09,18,01,51,2.10
2009,09,18,01,52,1.30
2009,09,18,01,53,5.00
2009,09,18,01,54,4.30
2009,09,18,01,55,1.20
2009,09,18,01,56,1.20
2009,09,18,01,57,1.00
2009,09,18,01,58,5.70
2009,09,18,01,59,4.80
2009,09,18,02,00,3.70
2009,09,18,02,01,4.40
2009,09,18,02,02,4.50
2009,09,18,02,03,2.00
2009,09,18,02,04,0.20
2009,09,18,02,05,0.00
2009,09,18,02,06,0.00
2009,09,18,02,07,0.00
2009,09,18,02,08,0.00
2009,09,18,02,09,1.00
2009,09,18,02,10,1.70
2009,09,18,02,11,2.30
2009,09,18,02,12,2.30
2009,09,18,02,13,1.40
2009,09,18,02,14,0.10
2009,09,18,02,15,1.90
2009,09,18,02,16,3.10
2009,09,18,02,17,3.60
2009,09,18,02,18,2.30
2009,09,18,02,19,0.30
2009,09,18,02,20,0.60
2009,09,18,02,21,0.20
2009,09,18,02,22,0.20
2009,09,18,02,23,0.00
2009,09,18,02,24,0.10
2009,09,18,02,25,0.10
2009,09,18,02,26,0.40
2009,09,18,02,27,1.00
2009,09,18,02,28,3.00
2009,09,18,02,29,1.90
2009,09,18,02,30,1.50
2009,09,18,02,31,1.70
2009,09,18,02,32,2.40
2009,09,18,02,33,3.60
2009,09,18,02,34,3.90
2009,09,18,02,35,5.20
2009,09,18,02,36,5.30
2009,09,18,02,37,7.20
2009,09,18,02,38,7.60
2009,09,18,02,39,7.50
2009,09,18,02,40,8.10
2009,09,18,02,41,8.40
2009,09,18,02,42,6.70
2009,09,18,02,43,8.30
2009,09,18,02,44,11.30
2009,09,18,02,45,9.90
2009,09,18,02,46,8.20
2009,09,18,02,47,7.50
2009,09,18,02,48,8.30
2009,09,18,02,49,8.20
2009,09,18,02,50,8.00
2009,09,18,02,51,8.90
2009,09,18,02,52,6.90
2009,09,18,02,53,8.60
2009,09,18,02,54,8.20
2009,09,18,02,55,8.10
2009,09,18,02,56,7.80
2009,09,18,02,57,12.30
2009,09,18,02,58,10.90
2009,09,18,02,59,9.50
2009,09,18,03,00,7.70
2009,09,18,03,01,10.30
2009,09,18,03,02,9.30
2009,09,18,03,03,5.50
2009,09,18,03,04,5.30
2009,09,18,03,05,7.20
2009,09,18,03,06,6.40
2009,09,18,03,07,10.80
2009,09,18,03,08,6.10
2009,09,18,03,09,7.30
2009,09,18,03,10,6.60
2009,09,18,03,11,8.50
2009,09,18,03,12,9.10
2009,09,18,03,13,8.00
2009,09,18,03,14,5.10
2009,09,18,03,15,7.00
2009,09,18,03,16,5.10
2009,09,18,03,17,6.40
2009,09,18,03,18,4.90
2009,09,18,03,19,6.10
2009,09,18,03,20,5.30
2009,09,18,03,21,3.80
2009,09,18,03,22,5.70
2009,09,18,03,23,7.70
2009,09,18,03,24,4.80
2009,09,18,03,25,6.30
2009,09,18,03,26,7.00
2009,09,18,03,27,7.10
2009,09,18,03,28,6.10
2009,09,18,03,29,7.30
2009,09,18,03,30,6.20
2009,09,18,03,31,8.10
2009,09,18,03,32,8.60
2009,09,18,03,33,8.80
2009,09,18,03,34,7.40
2009,09,18,03,35,7.40
2009,09,18,03,36,4.50
2009,09,18,03,37,5.90
2009,09,18,03,38,7.10
2009,09,18,03,39,4.40
2009,09,18,03,40,2.90
2009,09,18,03,41,3.90
2009,09,18,03,42,3.10
2009,09,18,03,43,3.60
2009,09,18,03,44,4.00
2009,09,18,03,45,5.30
2009,09,18,03,46,4.70
2009,09,18,03,47,8.60
2009,09,18,03,48,4.60
2009,09,18,03,49,5.10
2009,09,18,03,50,8.00
2009,09,18,03,51,6.50
2009,09,18,03,52,4.60
2009,09,18,03,53,5.30
2009,09,18,03,54,6.00
2009,09,18,03,55,5.10
2009,09,18,03,56,5.80
2009,09,18,03,57,4.00
2009,09,18,03,58,2.50
2009,09,18,03,59,4.70
2009,09,18,04,00,5.40
2009,09,18,04,01,4.60
2009,09,18,04,02,3.10
2009,09,18,04,03,4.00
2009,09,18,04,04,4.80
2009,09,18,04,05,4.10
2009,09,18,04,06,3.50
2009,09,18,04,07,5.50
2009,09,18,04,08,7.80
2009,09,18,04,09,5.30
2009,09,18,04,10,3.60
2009,09,18,04,11,6.70
2009,09,18,04,12,4.20
2009,09,18,04,13,7.40
2009,09,18,04,14,9.40
2009,09,18,04,15,8.10
2009,09,18,04,16,5.70
2009,09,18,04,17,6.60
2009,09,18,04,18,6.00
2009,09,18,04,19,6.10
2009,09,18,04,20,5.00
2009,09,18,04,21,6.90
2009,09,18,04,22,7.20
2009,09,18,04,23,5.80
2009,09,18,04,24,6.50
2009,09,18,04,25,7.00
2009,09,18,04,26,8.50
2009,09,18,04,27,6.50
2009,09,18,04,28,6.40
2009,09,18,04,29,5.30
2009,09,18,04,30,5.50
2009,09,18,04,31,6.20
2009,09,18,04,32,6.70
2009,09,18,04,33,7.30
2009,09,18,04,34,7.30
2009,09,18,04,35,5.60
2009,09,18,04,36,8.10
2009,09,18,04,37,8.60
2009,09,18,04,38,6.10
2009,09,18,04,39,6.70
2009,09,18,04,40,6.70
2009,09,18,04,41,7.00
2009,09,18,04,42,6.20
2009,09,18,04,43,7.70
2009,09,18,04,44,6.20
2009,09,18,04,45,6.60
2009,09,18,04,46,6.20
2009,09,18,04,47,5.10
2009,09,18,04,48,5.80
2009,09,18,04,49,6.40
2009,09,18,04,50,7.20
2009,09,18,04,51,7.50
2009,09,18,04,52,6.80
2009,09,18,04,53,7.20
2009,09,18,04,54,6.40
2009,09,18,04,55,5.50
2009,09,18,04,56,5.50
2009,09,18,04,57,4.70
2009,09,18,04,58,4.90
2009,09,18,04,59,4.30
2009,09,18,05,00,4.30
2009,09,18,05,01,5.90
2009,09,18,05,02,7.30
2009,09,18,05,03,6.30
2009,09,18,05,04,6.20
2009,09,18,05,05,6.40
2009,09,18,05,06,7.80
2009,09,18,05,07,8.40
2009,09,18,05,08,7.60
2009,09,18,05,09,8.80
2009,09,18,05,10,8.70
2009,09,18,05,11,7.20
2009,09,18,05,12,7.10
2009,09,18,05,13,8.10
2009,09,18,05,14,4.40
2009,09,18,05,15,6.30
2009,09,18,05,16,5.80
2009,09,18,05,17,6.70
2009,09,18,05,18,6.60
2009,09,18,05,19,6.10
2009,09,18,05,20,6.30
2009,09,18,05,21,6.30
2009,09,18,05,22,7.70
2009,09,18,05,23,7.00
2009,09,18,05,24,8.90
2009,09,18,05,25,8.00
2009,09,18,05,26,8.30
2009,09,18,05,27,8.90
2009,09,18,05,28,8.20
2009,09,18,05,29,10.10
2009,09,18,05,30,9.50
2009,09,18,05,31,8.80
2009,09,18,05,32,8.20
2009,09,18,05,33,8.80
2009,09,18,05,34,12.30
2009,09,18,05,35,8.70
2009,09,18,05,36,11.20
2009,09,18,05,37,9.20
2009,09,18,05,38,10.20
2009,09,18,05,39,12.20
2009,09,18,05,40,10.10
2009,09,18,05,41,9.00
2009,09,18,05,42,5.80
2009,09,18,05,43,5.80
2009,09,18,05,44,6.40
2009,09,18,05,45,8.20
2009,09,18,05,46,7.60
2009,09,18,05,47,8.90
2009,09,18,05,48,10.90
2009,09,18,05,49,11.40
2009,09,18,05,50,10.50
2009,09,18,05,51,11.00
2009,09,18,05,52,11.20
2009,09,18,05,53,10.90
2009,09,18,05,54,9.70
2009,09,18,05,55,10.60
2009,09,18,05,56,10.00
2009,09,18,05,57,12.00
2009,09,18,05,58,12.60
2009,09,18,05,59,18.20
2009,09,18,06,00,11.80
2009,09,18,06,01,9.90
2009,09,18,06,02,10.80
2009,09,18,06,03,10.60
2009,09,18,06,04,13.80
2009,09,18,06,05,14.50
2009,09,18,06,06,14.50
2009,09,18,06,07,14.30
2009,09,18,06,08,11.20
2009,09,18,06,09,12.30
2009,09,18,06,10,10.60
2009,09,18,06,11,12.30
2009,09,18,06,12,13.00
2009,09,18,06,13,10.10
2009,09,18,06,14,12.90
2009,09,18,06,15,13.00
2009,09,18,06,16,13.30
2009,09,18,06,17,10.00
2009,09,18,06,18,9.30
2009,09,18,06,19,10.60
2009,09,18,06,20,13.00
2009,09,18,06,21,7.90
2009,09,18,06,22,9.40
2009,09,18,06,23,8.70
2009,09,18,06,24,13.90
2009,09,18,06,25,9.60
2009,09,18,06,26,10.00
2009,09,18,06,27,12.10
2009,09,18,06,28,12.70
2009,09,18,06,29,12.30
2009,09,18,06,30,12.10
2009,09,18,06,31,9.00
2009,09,18,06,32,13.20
2009,09,18,06,33,10.70
2009,09,18,06,34,10.30
2009,09,18,06,35,9.80
2009,09,18,06,36,6.60
2009,09,18,06,37,8.10
2009,09,18,06,38,5.90
2009,09,18,06,39,3.10
2009,09,18,06,40,10.00
2009,09,18,06,41,5.80
2009,09,18,06,42,6.40
2009,09,18,06,43,7.30
2009,09,18,06,44,8.10
2009,09,18,06,45,5.90
2009,09,18,06,46,9.50
2009,09,18,06,47,10.10
2009,09,18,06,48,6.80
2009,09,18,06,49,7.90
2009,09,18,06,50,7.40
2009,09,18,06,51,6.40
2009,09,18,06,52,6.90
2009,09,18,06,53,6.90
2009,09,18,06,54,7.70
2009,09,18,06,55,7.30
2009,09,18,06,56,7.90
2009,09,18,06,57,7.10
2009,09,18,06,58,7.10
2009,09,18,06,59,6.00
2009,09,18,07,00,5.00
2009,09,18,07,01,5.40
2009,09,18,07,02,5.00
2009,09,18,07,03,4.10
2009,09,18,07,04,3.50
2009,09,18,07,05,5.10
2009,09,18,07,06,4.90
2009,09,18,07,07,6.10
2009,09,18,07,08,6.80
2009,09,18,07,09,8.90
2009,09,18,07,10,7.50
2009,09,18,07,11,8.40
2009,09,18,07,12,7.60
2009,09,18,07,13,10.50
2009,09,18,07,14,8.90
2009,09,18,07,15,9.20
2009,09,18,07,16,8.60
2009,09,18,07,17,10.80
2009,09,18,07,18,10.60
2009,09,18,07,19,8.70
2009,09,18,07,20,13.50
2009,09,18,07,21,15.40
2009,09,18,07,22,11.80
2009,09,18,07,23,11.50
2009,09,18,07,24,11.10
2009,09,18,07,25,10.30
2009,09,18,07,26,8.60
2009,09,18,07,27,10.40
2009,09,18,07,28,13.10
2009,09,18,07,29,11.50
2009,09,18,07,30,11.10
2009,09,18,07,31,9.70
2009,09,18,07,32,9.10
2009,09,18,07,33,12.50
2009,09,18,07,34,8.70
2009,09,18,07,35,11.80
2009,09,18,07,36,12.20
2009,09,18,07,37,9.50
2009,09,18,07,38,14.20
2009,09,18,07,39,13.70
2009,09,18,07,40,9.80
2009,09,18,07,41,8.10
2009,09,18,07,42,12.60
2009,09,18,07,43,12.40
2009,09,18,07,44,9.00
2009,09,18,07,45,11.20
2009,09,18,07,46,9.70
2009,09,18,07,47,12.10
2009,09,18,07,48,10.60
2009,09,18,07,49,10.00
2009,09,18,07,50,11.10
2009,09,18,07,51,7.70
2009,09,18,07,52,9.40
2009,09,18,07,53,9.10
2009,09,18,07,54,7.20
2009,09,18,07,55,12.50
2009,09,18,07,56,9.70
2009,09,18,07,57,9.20
2009,09,18,07,58,6.20
2009,09,18,07,59,9.40
2009,09,18,08,00,8.50
2009,09,18,08,01,8.70
2009,09,18,08,02,8.00
2009,09,18,08,03,9.70
2009,09,18,08,04,10.00
2009,09,18,08,05,13.00
2009,09,18,08,06,10.00
2009,09,18,08,07,8.50
2009,09,18,08,08,11.40
2009,09,18,08,09,10.60
2009,09,18,08,10,10.80
2009,09,18,08,11,8.60
2009,09,18,08,12,8.00
2009,09,18,08,13,8.40
2009,09,18,08,14,8.20
2009,09,18,08,15,7.90
2009,09,18,08,16,8.40
2009,09,18,08,17,8.00
2009,09,18,08,18,6.80
2009,09,18,08,19,9.10
2009,09,18,08,20,6.20
2009,09,18,08,21,6.70
2009,09,18,08,22,9.70
2009,09,18,08,23,9.20
2009,09,18,08,24,8.10
2009,09,18,08,25,8.10
2009,09,18,08,26,8.30
2009,09,18,08,27,6.10
2009,09,18,08,28,6.60
2009,09,18,08,29,6.60
2009,09,18,08,30,6.60
2009,09,18,08,31,7.10
2009,09,18,08,32,4.50
2009,09,18,08,33,4.10
2009,09,18,08,34,6.30
2009,09,18,08,35,8.10
2009,09,18,08,36,9.30
2009,09,18,08,37,8.80
2009,09,18,08,38,5.60
2009,09,18,08,39,5.50
2009,09,18,08,40,5.90
2009,09,18,08,41,7.00
2009,09,18,08,42,10.40
2009,09,18,08,43,10.70
2009,09,18,08,44,10.90
2009,09,18,08,45,6.80
2009,09,18,08,46,9.70
2009,09,18,08,47,7.30
2009,09,18,08,48,11.40
2009,09,18,08,49,10.10
2009,09,18,08,50,6.20
2009,09,18,08,51,6.20
2009,09,18,08,52,8.10
2009,09,18,08,53,4.70
2009,09,18,08,54,7.50
2009,09,18,08,55,6.90
2009,09,18,08,56,10.40
2009,09,18,08,57,5.90
2009,09,18,08,58,8.00
2009,09,18,08,59,8.10
2009,09,18,09,00,9.50
2009,09,18,09,01,6.30
2009,09,18,09,02,5.30
2009,09,18,09,03,5.60
2009,09,18,09,04,5.70
2009,09,18,09,05,10.60
2009,09,18,09,06,6.90
2009,09,18,09,07,5.50
2009,09,18,09,08,9.00
2009,09,18,09,09,6.70
2009,09,18,09,10,7.20
2009,09,18,09,11,5.70
2009,09,18,09,12,6.40
2009,09,18,09,13,8.10
2009,09,18,09,14,7.40
2009,09,18,09,15,8.30
2009,09,18,09,16,6.10
2009,09,18,09,17,5.60
2009,09,18,09,18,5.60
2009,09,18,09,19,7.20
2009,09,18,09,20,6.70
2009,09,18,09,21,7.90
2009,09,18,09,22,6.70
2009,09,18,09,23,10.20
2009,09,18,09,24,8.00
2009,09,18,09,25,8.90
2009,09,18,09,26,8.40
2009,09,18,09,27,11.60
2009,09,18,09,28,9.10
2009,09,18,09,29,9.70
2009,09,18,09,30,7.40
2009,09,18,09,31,9.40
2009,09,18,09,32,9.90
2009,09,18,09,33,8.00
2009,09,18,09,34,7.30
2009,09,18,09,35,8.80
2009,09,18,09,36,11.80
2009,09,18,09,37,8.50
2009,09,18,09,38,10.40
2009,09,18,09,39,6.40
2009,09,18,09,40,8.90
2009,09,18,09,41,7.00
2009,09,18,09,42,6.10
2009,09,18,09,43,6.90
2009,09,18,09,44,5.70
2009,09,18,09,45,5.90
2009,09,18,09,46,9.20
2009,09,18,09,47,7.30
2009,09,18,09,48,9.00
2009,09,18,09,49,5.30
2009,09,18,09,50,3.60
2009,09,18,09,51,5.40
2009,09,18,09,52,7.30
2009,09,18,09,53,7.10
2009,09,18,09,54,8.10
2009,09,18,09,55,7.30
2009,09,18,09,56,7.90
2009,09,18,09,57,7.80
2009,09,18,09,58,3.70
2009,09,18,09,59,7.30
2009,09,18,10,00,5.50
2009,09,18,10,01,6.20
2009,09,18,10,02,6.00
2009,09,18,10,03,6.80
2009,09,18,10,04,4.40
2009,09,18,10,05,3.50
2009,09,18,10,06,4.20
2009,09,18,10,07,3.80
2009,09,18,10,08,4.90
2009,09,18,10,09,4.70
2009,09,18,10,10,2.60
2009,09,18,10,11,4.70
2009,09,18,10,12,4.60
2009,09,18,10,13,5.00
2009,09,18,10,14,6.00
2009,09,18,10,15,6.90
2009,09,18,10,16,5.30
2009,09,18,10,17,4.50
2009,09,18,10,18,8.00
2009,09,18,10,19,5.40
2009,09,18,10,20,6.30
2009,09,18,10,21,13.20
2009,09,18,10,22,4.50
2009,09,18,10,23,6.60
2009,09,18,10,24,5.10
2009,09,18,10,25,10.30
2009,09,18,10,26,7.40
2009,09,18,10,27,4.80
2009,09,18,10,28,6.40
2009,09,18,10,29,6.50
2009,09,18,10,30,8.60
2009,09,18,10,31,4.30
2009,09,18,10,32,5.60
2009,09,18,10,33,8.10
2009,09,18,10,34,5.30
2009,09,18,10,35,11.90
2009,09,18,10,36,6.30
2009,09,18,10,37,6.00
2009,09,18,10,38,8.10
2009,09,18,10,39,10.50
2009,09,18,10,40,10.80
2009,09,18,10,41,11.00
2009,09,18,10,42,12.90
2009,09,18,10,43,12.60
2009,09,18,10,44,9.10
2009,09,18,10,45,7.20
2009,09,18,10,46,7.30
2009,09,18,10,47,10.90
2009,09,18,10,48,10.40
2009,09,18,10,49,9.70
2009,09,18,10,50,12.50
2009,09,18,10,51,11.50
2009,09,18,10,52,11.00
2009,09,18,10,53,13.50
2009,09,18,10,54,13.00
2009,09,18,10,55,7.30
2009,09,18,10,56,9.60
2009,09,18,10,57,13.90
2009,09,18,10,58,13.00
2009,09,18,10,59,7.80
2009,09,18,11,00,8.10
2009,09,18,11,01,10.10
2009,09,18,11,02,10.50
2009,09,18,11,03,11.40
2009,09,18,11,04,9.10
2009,09,18,11,05,8.70
2009,09,18,11,06,13.20
2009,09,18,11,07,7.10
2009,09,18,11,08,8.80
2009,09,18,11,09,7.40
2009,09,18,11,10,12.60
2009,09,18,11,11,8.80
2009,09,18,11,12,9.90
2009,09,18,11,13,11.70
2009,09,18,11,14,8.40
2009,09,18,11,15,4.50
2009,09,18,11,16,11.50
2009,09,18,11,17,14.80
2009,09,18,11,18,8.30
2009,09,18,11,19,8.00
2009,09,18,11,20,8.50
2009,09,18,11,21,11.00
2009,09,18,11,22,7.30
2009,09,18,11,23,11.40
2009,09,18,11,24,12.80
2009,09,18,11,25,13.90
2009,09,18,11,26,13.80
2009,09,18,11,27,12.70
2009,09,18,11,28,15.10
2009,09,18,11,29,13.50
2009,09,18,11,30,12.40
2009,09,18,11,31,8.50
2009,09,18,11,32,6.10
2009,09,18,11,33,10.40
2009,09,18,11,34,10.10
2009,09,18,11,35,6.60
2009,09,18,11,36,13.50
2009,09,18,11,37,14.00
2009,09,18,11,38,16.10
2009,09,18,11,39,12.50
2009,09,18,11,40,10.10
2009,09,18,11,41,12.20
2009,09,18,11,42,13.10
2009,09,18,11,43,9.70
2009,09,18,11,44,12.30
2009,09,18,11,45,15.60
2009,09,18,11,46,9.60
2009,09,18,11,47,5.10
2009,09,18,11,48,9.20
2009,09,18,11,49,9.60
2009,09,18,11,50,8.90
2009,09,18,11,51,9.90
2009,09,18,11,52,6.00
2009,09,18,11,53,7.40
2009,09,18,11,54,10.20
2009,09,18,11,55,6.40
2009,09,18,11,56,14.80
2009,09,18,11,57,12.90
2009,09,18,11,58,15.00
2009,09,18,11,59,15.10
2009,09,18,12,00,14.80
2009,09,18,12,01,13.20
2009,09,18,12,02,7.30
2009,09,18,12,03,10.00
2009,09,18,12,04,13.60
2009,09,18,12,05,11.00
2009,09,18,12,06,9.80
2009,09,18,12,07,13.30
2009,09,18,12,08,12.80
2009,09,18,12,09,16.20
2009,09,18,12,10,8.00
2009,09,18,12,11,11.70
2009,09,18,12,12,14.50
2009,09,18,12,13,9.60
2009,09,18,12,14,8.30
2009,09,18,12,15,6.50
2009,09,18,12,16,12.50
2009,09,18,12,17,8.40
2009,09,18,12,18,7.50
2009,09,18,12,19,10.10
2009,09,18,12,20,8.50
2009,09,18,12,21,11.50
2009,09,18,12,22,12.60
2009,09,18,12,23,10.50
2009,09,18,12,24,11.40
2009,09,18,12,25,15.20
2009,09,18,12,26,9.40
2009,09,18,12,27,5.10
2009,09,18,12,28,10.90
2009,09,18,12,29,12.30
2009,09,18,12,30,7.90
2009,09,18,12,31,7.50
2009,09,18,12,32,6.00
2009,09,18,12,33,10.40
2009,09,18,12,34,10.70
2009,09,18,12,35,7.20
2009,09,18,12,36,7.70
2009,09,18,12,37,9.70
2009,09,18,12,38,9.50
2009,09,18,12,39,6.10
2009,09,18,12,40,11.80
2009,09,18,12,41,12.40
2009,09,18,12,42,14.10
2009,09,18,12,43,16.40
2009,09,18,12,44,9.00
2009,09,18,12,45,9.60
2009,09,18,12,46,15.60
2009,09,18,12,47,9.00
2009,09,18,12,48,9.10
2009,09,18,12,49,7.70
2009,09,18,12,50,13.00
2009,09,18,12,51,8.70
2009,09,18,12,52,9.60
2009,09,18,12,53,13.40
2009,09,18,12,54,9.80
2009,09,18,12,55,7.00
2009,09,18,12,56,10.20
2009,09,18,12,57,6.20
2009,09,18,12,58,8.00
2009,09,18,12,59,7.30
2009,09,18,13,00,7.90
2009,09,18,13,01,8.90
2009,09,18,13,02,9.40
2009,09,18,13,03,9.60
2009,09,18,13,04,11.50
2009,09,18,13,05,10.00
2009,09,18,13,06,12.40
2009,09,18,13,07,12.20
2009,09,18,13,08,7.90
2009,09,18,13,09,10.00
2009,09,18,13,10,14.10
2009,09,18,13,11,13.60
2009,09,18,13,12,11.50
2009,09,18,13,13,12.80
2009,09,18,13,14,11.40
2009,09,18,13,15,13.30
2009,09,18,13,16,14.30
2009,09,18,13,17,7.90
2009,09,18,13,18,9.30
2009,09,18,13,19,12.90
2009,09,18,13,20,14.60
2009,09,18,13,21,13.40
2009,09,18,13,22,7.20
2009,09,18,13,23,8.90
2009,09,18,13,24,9.50
2009,09,18,13,25,13.70
2009,09,18,13,26,9.90
2009,09,18,13,27,10.60
2009,09,18,13,28,14.70
2009,09,18,13,29,15.00
2009,09,18,13,30,14.60
2009,09,18,13,31,13.50
2009,09,18,13,32,10.20
2009,09,18,13,33,15.60
2009,09,18,13,34,11.40
2009,09,18,13,35,17.30
2009,09,18,13,36,12.30
2009,09,18,13,37,13.40
2009,09,18,13,38,8.80
2009,09,18,13,39,11.40
2009,09,18,13,40,13.20
2009,09,18,13,41,17.40
2009,09,18,13,42,17.80
2009,09,18,13,43,13.90
2009,09,18,13,44,8.70
2009,09,18,13,45,8.30
2009,09,18,13,46,8.00
2009,09,18,13,47,10.40
2009,09,18,13,48,11.70
2009,09,18,13,49,9.80
2009,09,18,13,50,6.90
2009,09,18,13,51,10.10
2009,09,18,13,52,9.10
2009,09,18,13,53,9.60
2009,09,18,13,54,7.10
2009,09,18,13,55,9.80
2009,09,18,13,56,7.60
2009,09,18,13,57,6.40
2009,09,18,13,58,13.10
2009,09,18,13,59,10.20
2009,09,18,14,00,9.20
2009,09,18,14,01,13.90
2009,09,18,14,02,12.00
2009,09,18,14,03,11.40
2009,09,18,14,04,10.60
2009,09,18,14,05,9.30
2009,09,18,14,06,11.80
2009,09,18,14,07,9.90
2009,09,18,14,08,11.00
2009,09,18,14,09,9.80
2009,09,18,14,10,8.00
2009,09,18,14,11,11.80
2009,09,18,14,12,11.10
2009,09,18,14,13,7.60
2009,09,18,14,14,10.80
2009,09,18,14,15,10.20
2009,09,18,14,16,7.40
2009,09,18,14,17,12.90
2009,09,18,14,18,12.80
2009,09,18,14,19,14.30
2009,09,18,14,20,8.00
2009,09,18,14,21,10.10
2009,09,18,14,22,14.70
2009,09,18,14,23,9.30
2009,09,18,14,24,6.30
2009,09,18,14,25,10.60
2009,09,18,14,26,14.20
2009,09,18,14,27,12.30
2009,09,18,14,28,8.00
2009,09,18,14,29,6.40
2009,09,18,14,30,11.00
2009,09,18,14,31,8.30
2009,09,18,14,32,8.70
2009,09,18,14,33,12.00
2009,09,18,14,34,10.20
2009,09,18,14,35,7.40
2009,09,18,14,36,6.10
2009,09,18,14,37,7.00
2009,09,18,14,38,5.50
2009,09,18,14,39,9.10
2009,09,18,14,40,3.90
2009,09,18,14,41,6.60
2009,09,18,14,42,6.90
2009,09,18,14,43,6.70
2009,09,18,14,44,5.00
2009,09,18,14,45,8.10
2009,09,18,14,46,7.70
2009,09,18,14,47,11.10
2009,09,18,14,48,6.00
2009,09,18,14,49,6.90
2009,09,18,14,50,4.60
2009,09,18,14,51,5.50
2009,09,18,14,52,6.80
2009,09,18,14,53,9.00
2009,09,18,14,54,6.70
2009,09,18,14,55,7.60
2009,09,18,14,56,3.50
2009,09,18,14,57,8.30
2009,09,18,14,58,9.70
2009,09,18,14,59,8.80
2009,09,18,15,00,9.60
2009,09,18,15,01,11.40
2009,09,18,15,02,7.30
2009,09,18,15,03,7.40
2009,09,18,15,04,10.50
2009,09,18,15,05,8.00
2009,09,18,15,06,8.70
2009,09,18,15,07,11.50
2009,09,18,15,08,6.60
2009,09,18,15,09,8.40
2009,09,18,15,10,9.10
2009,09,18,15,11,4.80
2009,09,18,15,12,12.80
2009,09,18,15,13,12.40
2009,09,18,15,14,12.30
2009,09,18,15,15,6.90
2009,09,18,15,16,7.80
2009,09,18,15,17,6.50
2009,09,18,15,18,7.80
2009,09,18,15,19,9.50
2009,09,18,15,20,9.20
2009,09,18,15,21,6.40
2009,09,18,15,22,6.70
2009,09,18,15,23,13.60
2009,09,18,15,24,10.50
2009,09,18,15,25,12.50
2009,09,18,15,26,8.20
2009,09,18,15,27,11.80
2009,09,18,15,28,8.20
2009,09,18,15,29,5.70
2009,09,18,15,30,7.50
2009,09,18,15,31,4.30
2009,09,18,15,32,12.30
2009,09,18,15,33,6.00
2009,09,18,15,34,8.60
2009,09,18,15,35,11.90
2009,09,18,15,36,8.60
2009,09,18,15,37,5.90
2009,09,18,15,38,7.70
2009,09,18,15,39,4.80
2009,09,18,15,40,0.40
2009,09,18,15,41,1.10
2009,09,18,15,42,8.10
2009,09,18,15,43,5.80
2009,09,18,15,44,4.70
2009,09,18,15,45,4.20
2009,09,18,15,46,7.20
2009,09,18,15,47,4.10
2009,09,18,15,48,7.20
2009,09,18,15,49,5.40
2009,09,18,15,50,7.30
2009,09,18,15,51,8.70
2009,09,18,15,52,6.10
2009,09,18,15,53,6.90
2009,09,18,15,54,7.50
2009,09,18,15,55,5.50
2009,09,18,15,56,7.60
2009,09,18,15,57,6.90
2009,09,18,15,58,5.50
2009,09,18,15,59,9.00
2009,09,18,16,00,3.40
2009,09,18,16,01,8.30
2009,09,18,16,02,8.10
2009,09,18,16,03,6.10
2009,09,18,16,04,7.10
2009,09,18,16,05,5.90
2009,09,18,16,06,6.60
2009,09,18,16,07,8.20
2009,09,18,16,08,4.40
2009,09,18,16,09,1.00
2009,09,18,16,10,4.80
2009,09,18,16,11,1.30
2009,09,18,16,12,3.10
2009,09,18,16,13,4.10
2009,09,18,16,14,6.10
2009,09,18,16,15,4.90
2009,09,18,16,16,4.70
2009,09,18,16,17,4.90
2009,09,18,16,18,5.40
2009,09,18,16,19,3.20
2009,09,18,16,20,4.70
2009,09,18,16,21,2.90
2009,09,18,16,22,3.90
2009,09,18,16,23,6.60
2009,09,18,16,24,6.10
2009,09,18,16,25,2.30
2009,09,18,16,26,4.90
2009,09,18,16,27,4.40
2009,09,18,16,28,2.80
2009,09,18,16,29,2.20
2009,09,18,16,30,0.70
2009,09,18,16,31,1.50
2009,09,18,16,32,5.40
2009,09,18,16,33,8.00
2009,09,18,16,34,7.80
2009,09,18,16,35,8.80
2009,09,18,16,36,6.20
2009,09,18,16,37,4.80
2009,09,18,16,38,4.60
2009,09,18,16,39,8.10
2009,09,18,16,40,10.60
2009,09,18,16,41,8.60
2009,09,18,16,42,6.40
2009,09,18,16,43,6.50
2009,09,18,16,44,7.10
2009,09,18,16,45,2.60
2009,09,18,16,46,3.00
2009,09,18,16,47,7.30
2009,09,18,16,48,10.80
2009,09,18,16,49,7.30
2009,09,18,16,50,9.50
2009,09,18,16,51,5.90
2009,09,18,16,52,6.90
2009,09,18,16,53,7.20
2009,09,18,16,54,7.80
2009,09,18,16,55,8.10
2009,09,18,16,56,10.60
2009,09,18,16,57,9.10
2009,09,18,16,58,10.80
2009,09,18,16,59,7.20
2009,09,18,17,00,8.50
2009,09,18,17,01,5.80
2009,09,18,17,02,5.70
2009,09,18,17,03,8.00
2009,09,18,17,04,6.10
2009,09,18,17,05,8.20
2009,09,18,17,06,8.60
2009,09,18,17,07,7.20
2009,09,18,17,08,4.30
2009,09,18,17,09,3.90
2009,09,18,17,10,3.30
2009,09,18,17,11,3.70
2009,09,18,17,12,5.80
2009,09,18,17,13,6.30
2009,09,18,17,14,5.40
2009,09,18,17,15,6.00
2009,09,18,17,16,5.70
2009,09,18,17,17,6.80
2009,09,18,17,18,5.20
2009,09,18,17,19,6.10
2009,09,18,17,20,4.50
2009,09,18,17,21,3.10
2009,09,18,17,22,3.70
2009,09,18,17,23,4.50
2009,09,18,17,24,6.50
2009,09,18,17,25,8.00
2009,09,18,17,26,6.20
2009,09,18,17,27,4.00
2009,09,18,17,28,7.30
2009,09,18,17,29,5.50
2009,09,18,17,30,8.70
2009,09,18,17,31,6.00
2009,09,18,17,32,4.80
2009,09,18,17,33,6.20
2009,09,18,17,34,6.40
2009,09,18,17,35,9.30
2009,09,18,17,36,7.90
2009,09,18,17,37,4.90
2009,09,18,17,38,6.60
2009,09,18,17,39,6.80
2009,09,18,17,40,6.10
2009,09,18,17,41,5.20
2009,09,18,17,42,3.80
2009,09,18,17,43,3.20
2009,09,18,17,44,2.10
2009,09,18,17,45,0.30
2009,09,18,17,46,1.10
2009,09,18,17,47,0.00
2009,09,18,17,48,0.20
2009,09,18,17,49,1.60
2009,09,18,17,50,3.60
2009,09,18,17,51,2.30
2009,09,18,17,52,2.20
2009,09,18,17,53,3.10
2009,09,18,17,54,3.60
2009,09,18,17,55,2.90